TimeCDT,TemperatureF,Dew PointF,Humidity,Sea Level PressureIn,VisibilityMPH,Wind Direction,Wind SpeedMPH,Gust SpeedMPH,PrecipitationIn,Events,Conditions,WindDirDegrees,DateUTC
12:13 AM,43.7,30.2,59,29.99,10.0,ESE,11.5,-,N/A,,Scattered Clouds,110,2013-04-26 05:13:00
12:33 AM,43.2,30.2,60,29.98,10.0,East,11.5,16.1,N/A,,Scattered Clouds,100,2013-04-26 05:33:00
12:53 AM,43.3,30.6,61,29.98,10.0,East,10.4,-,N/A,,Mostly Cloudy,100,2013-04-26 05:53:00
1:13 AM,43.3,30.9,62,29.98,10.0,East,9.2,-,N/A,,Scattered Clouds,100,2013-04-26 06:13:00
1:33 AM,43.3,31.5,63,29.97,10.0,ESE,10.4,-,N/A,,Scattered Clouds,110,2013-04-26 06:33:00
2:13 AM,42.3,32.0,67,29.96,10.0,ENE,8.1,-,N/A,,Mostly Cloudy,60,2013-04-26 07:13:00
2:33 AM,41.9,32.0,68,29.96,10.0,NE,8.1,-,N/A,,Scattered Clouds,50,2013-04-26 07:33:00
2:53 AM,41.7,32.0,68,29.95,10.0,East,6.9,-,N/A,,Clear,90,2013-04-26 07:53:00
3:13 AM,41.5,32.0,69,29.94,10.0,East,9.2,-,N/A,,Scattered Clouds,90,2013-04-26 08:13:00
3:33 AM,40.6,32.2,72,29.93,10.0,ESE,8.1,-,N/A,,Clear,110,2013-04-26 08:33:00
3:53 AM,41.0,32.9,73,29.92,10.0,ESE,9.2,-,N/A,,Clear,120,2013-04-26 08:53:00
4:13 AM,42.4,33.6,71,29.91,10.0,SE,10.4,-,N/A,,Clear,130,2013-04-26 09:13:00
4:33 AM,41.9,33.6,72,29.91,10.0,SE,9.2,-,N/A,,Clear,130,2013-04-26 09:33:00
4:53 AM,41.4,33.8,74,29.91,10.0,SE,9.2,-,N/A,,Clear,130,2013-04-26 09:53:00
5:13 AM,41.2,34.3,77,29.91,10.0,SE,8.1,-,N/A,,Clear,140,2013-04-26 10:13:00
5:33 AM,41.5,34.7,77,29.91,10.0,SE,8.1,-,N/A,,Clear,140,2013-04-26 10:33:00
5:53 AM,41.4,35.1,78,29.91,10.0,SE,9.2,-,N/A,,Clear,140,2013-04-26 10:53:00
6:13 AM,41.2,35.2,79,29.91,10.0,SSE,10.4,-,N/A,,Clear,150,2013-04-26 11:13:00
6:33 AM,40.6,35.1,80,29.91,10.0,SSE,8.1,-,N/A,,Clear,150,2013-04-26 11:33:00
6:53 AM,41.0,35.4,81,29.91,10.0,SSE,9.2,-,N/A,,Clear,150,2013-04-26 11:53:00
7:13 AM,41.5,35.6,79,29.92,10.0,SSE,8.1,-,N/A,,Clear,160,2013-04-26 12:13:00
7:33 AM,42.6,36.3,78,29.93,10.0,South,9.2,-,N/A,,Clear,170,2013-04-26 12:33:00
7:53 AM,44.1,36.7,75,29.93,10.0,South,8.1,-,N/A,,Clear,180,2013-04-26 12:53:00
8:13 AM,45.5,37.6,74,29.94,10.0,SSW,8.1,-,N/A,,Clear,210,2013-04-26 13:13:00
8:33 AM,46.6,38.1,72,29.94,10.0,SSW,6.9,-,N/A,,Clear,210,2013-04-26 13:33:00
8:53 AM,48.7,38.3,67,29.95,10.0,WSW,8.1,-,N/A,,Clear,250,2013-04-26 13:53:00
9:13 AM,50.0,38.3,64,29.97,10.0,West,9.2,-,N/A,,Clear,260,2013-04-26 14:13:00
9:33 AM,51.8,38.7,61,29.97,10.0,WNW,8.1,-,N/A,,Clear,290,2013-04-26 14:33:00
9:53 AM,52.9,39.4,60,29.98,10.0,NW,8.1,-,N/A,,Clear,310,2013-04-26 14:53:00
10:13 AM,52.7,39.7,61,29.99,10.0,NW,9.2,-,N/A,,Clear,320,2013-04-26 15:13:00
10:33 AM,53.8,40.3,60,30.00,10.0,NNW,6.9,-,N/A,,Clear,330,2013-04-26 15:33:00
10:53 AM,54.1,41.2,62,30.01,10.0,WNW,4.6,-,N/A,,Clear,290,2013-04-26 15:53:00
11:13 AM,55.4,41.4,59,30.02,10.0,North,6.9,-,N/A,,Clear,350,2013-04-26 16:13:00
11:33 AM,55.9,42.4,61,30.03,10.0,NW,8.1,-,N/A,,Clear,320,2013-04-26 16:33:00
11:53 AM,56.7,43.5,61,30.04,10.0,NW,6.9,-,N/A,,Clear,310,2013-04-26 16:53:00
12:13 PM,58.3,42.4,56,30.04,10.0,NW,10.4,-,N/A,,Clear,320,2013-04-26 17:13:00
12:33 PM,59.0,42.6,55,30.04,10.0,Calm,Calm,-,N/A,,Clear,0,2013-04-26 17:33:00
12:53 PM,61.0,41.7,49,30.04,10.0,ENE,4.6,-,N/A,,Clear,70,2013-04-26 17:53:00
1:13 PM,61.7,39.9,45,30.04,10.0,Calm,Calm,-,N/A,,Clear,0,2013-04-26 18:13:00
1:33 PM,62.6,39.0,42,30.04,10.0,Calm,Calm,-,N/A,,Clear,0,2013-04-26 18:33:00
1:53 PM,63.9,39.4,41,30.04,10.0,Calm,Calm,-,N/A,,Clear,0,2013-04-26 18:53:00
2:13 PM,65.5,36.7,35,30.05,10.0,NNW,6.9,-,N/A,,Clear,340,2013-04-26 19:13:00
2:33 PM,66.0,38.5,36,30.05,10.0,NNW,6.9,-,N/A,,Clear,340,2013-04-26 19:33:00
2:53 PM,65.8,41.9,42,30.05,10.0,NNW,6.9,-,N/A,,Clear,340,2013-04-26 19:53:00
3:13 PM,64.9,44.2,47,30.06,10.0,NW,9.2,-,N/A,,Clear,320,2013-04-26 20:13:00
3:33 PM,65.5,42.4,43,30.06,10.0,NNW,10.4,-,N/A,,Clear,330,2013-04-26 20:33:00
3:53 PM,65.7,39.6,38,30.06,10.0,NW,10.4,-,N/A,,Clear,310,2013-04-26 20:53:00
4:13 PM,65.3,34.7,32,30.06,10.0,North,10.4,16.1,N/A,,Clear,350,2013-04-26 21:13:00
4:33 PM,66.0,33.1,29,30.06,10.0,NNW,9.2,-,N/A,,Clear,340,2013-04-26 21:33:00
4:53 PM,65.5,33.3,30,30.07,10.0,WNW,9.2,-,N/A,,Clear,300,2013-04-26 21:53:00
5:13 PM,65.3,33.4,31,30.08,10.0,NW,10.4,-,N/A,,Clear,320,2013-04-26 22:13:00
5:33 PM,65.3,32.9,30,30.08,10.0,WNW,8.1,-,N/A,,Clear,300,2013-04-26 22:33:00
5:53 PM,64.9,33.1,31,30.09,10.0,NW,10.4,-,N/A,,Clear,320,2013-04-26 22:53:00
6:13 PM,64.8,32.2,30,30.09,10.0,NW,8.1,-,N/A,,Clear,320,2013-04-26 23:13:00
6:32 PM,64.4,32.0,30,30.09,10.0,NW,8.1,-,N/A,,Clear,310,2013-04-26 23:32:00
6:53 PM,63.9,31.8,30,30.10,10.0,NNW,8.1,-,N/A,,Clear,330,2013-04-26 23:53:00
7:13 PM,63.1,34.2,34,30.10,10.0,NW,6.9,-,N/A,,Clear,320,2013-04-27 00:13:00
7:33 PM,62.1,34.9,36,30.11,10.0,NW,3.5,-,N/A,,Clear,320,2013-04-27 00:33:00
7:53 PM,60.8,33.8,36,30.11,10.0,Calm,Calm,-,N/A,,Clear,0,2013-04-27 00:53:00
8:13 PM,59.0,34.0,39,30.11,10.0,NW,4.6,-,N/A,,Clear,320,2013-04-27 01:13:00
8:33 PM,58.1,34.2,41,30.11,10.0,Calm,Calm,-,N/A,,Clear,0,2013-04-27 01:33:00
8:53 PM,52.9,36.0,53,30.12,10.0,Calm,Calm,-,N/A,,Clear,0,2013-04-27 01:53:00
9:13 PM,50.2,36.0,58,30.13,10.0,Calm,Calm,-,N/A,,Clear,0,2013-04-27 02:13:00
9:33 PM,47.1,36.9,68,30.13,10.0,Calm,Calm,-,N/A,,Clear,0,2013-04-27 02:33:00
9:53 PM,45.3,36.5,71,30.14,10.0,Calm,Calm,-,N/A,,Clear,0,2013-04-27 02:53:00
10:13 PM,43.9,36.1,74,30.14,10.0,Calm,Calm,-,N/A,,Clear,0,2013-04-27 03:13:00
10:33 PM,43.0,36.3,77,30.15,10.0,Calm,Calm,-,N/A,,Clear,0,2013-04-27 03:33:00
10:53 PM,41.7,36.1,81,30.15,10.0,Calm,Calm,-,N/A,,Clear,0,2013-04-27 03:53:00
11:13 PM,40.5,35.8,83,30.15,10.0,Calm,Calm,-,N/A,,Clear,0,2013-04-27 04:13:00
11:33 PM,39.6,35.4,85,30.15,10.0,Calm,Calm,-,N/A,,Clear,0,2013-04-27 04:33:00
11:53 PM,38.7,35.1,87,30.15,10.0,Calm,Calm,-,N/A,,Clear,0,2013-04-27 04:53:00